Regional Weather Roundup
Issued by NWS

Home | Current Version | Previous Version | Text Only | Print | Product List | Glossary Off
Versions: 1 2 3 4 5 6 7 8 9 10 11 12 13 14 15 16 17 18 19 20 21 22 23 24 25 26 27 28 29 30 31 32 33 34 35 36 37 38 39 40 41 42 43 44 45 46 47 48 49 50

000
ASUS45 KTFX 302110
RWRMT
MONTANA REGIONAL WEATHER ROUNDUP
NATIONAL WEATHER SERVICE GREAT FALLS MT
300 PM MDT MON MAY 30 2016

NOTE: "FAIR" INDICATES FEW OR NO CLOUDS BELOW 12000 FEET WITH NO
SIGNIFICANT WEATHER AND/OR OBSTRUCTIONS TO VISIBILITY.

MTZ001>007-043-302200-
WEST OF THE DIVIDE

CITY           SKY/WX    TMP DP  RH WIND       PRES   REMARKS
KALISPELL      PTSUNNY   64  41  42 S5        30.15F
MISSOULA       SUNNY     67  34  29 N12       30.14F
BUTTE          MOSUNNY   60  20  21 NW12G24   30.14F
MULLAN PASS    SUNNY     52  23  32 NW9G17    30.24R
ANACONDA         N/A     63  21  20 W12G17    30.13
DEER LODGE       N/A     61  28  29 NW15G25   30.15R
EUREKA           N/A     63  37  39 CALM      30.17F
HAMILTON         N/A     66  28  24 CALM      30.14F
LIBBY            N/A     66  34  30 NW7       30.16F
$$

MTZ008-052>055-302200-
SOUTHWEST MONTANA

CITY           SKY/WX    TMP DP  RH WIND       PRES   REMARKS
BOZEMAN        PTSUNNY   63  30  28 W12       30.09R
DILLON         MOSUNNY   64  21  19 NW7       30.11F
W YELLOWSTONE  CLOUDY    57  25  28 NW7G20    30.14R
ENNIS          SUNNY     63  23  22 W12G23    30.17S
$$

MTZ009-010-012-014-046-048-049-054-302200-
EAST SLOPES AND CENTRAL MONTANA

CITY           SKY/WX    TMP DP  RH WIND       PRES   REMARKS
CUT BANK       MOSUNNY   57  33  40 NW29G36   30.13S
GREAT FALLS    CLOUDY    58  33  39 NW16G23   30.13S
MALMSTROM AFB  PTSUNNY   57  34  41 NW21G29   30.13S
HELENA         PTSUNNY   67  28  23 NW20G28   30.09F
CHOTEAU          N/A     50  39  66 NW18      30.17R
$$

MTZ011-013-016-021-045-047-050-051-302200-
NORTH CENTRAL MONTANA

CITY           SKY/WX    TMP DP  RH WIND       PRES   REMARKS
HAVRE          LGT RAIN  47  43  86 W20G29    30.08S
LEWISTOWN      LGT RAIN  50  41  71 NW15G26   30.11R
N BAR RANCH    LGT RAIN  48  37  66 NW23G43   30.07S
CHINOOK          N/A     50  43  76 W23G29    30.04S
$$

MTZ017>020-022>027-061-062-302200-
NORTHEAST MONTANA

CITY           SKY/WX    TMP DP  RH WIND       PRES   REMARKS
GLASGOW        CLOUDY    56  51  84 NW13      29.96F
JORDAN           N/A     60  47  61 NW17G24   29.99F
SIDNEY         CLOUDY    59  54  82 N8        29.91S
WOLF POINT     LGT RAIN  55  53  93 SW8       29.96R FOG
POPLAR           N/A     57  54  88 NW5       29.94R
$$

MTZ028>42-056>058-302200-
SOUTHCENTRAL AND SOUTHEAST MONTANA

CITY           SKY/WX    TMP DP  RH WIND       PRES   REMARKS
BAKER          CLOUDY    63  49  60 W7        29.91S
BILLINGS       PTSUNNY   59  42  53 N16       30.04F
LIVINGSTON     PTSUNNY   65  32  29 NW22      30.06R
MILES CITY     LGT RAIN  53  49  86 NW24G31   29.98R
FORSYTH          N/A     59  48  67 NW16      29.98S
$$

REGIONAL REPORTS...DAKOTAS

CITY           SKY/WX    TMP DP  RH WIND       PRES   REMARKS
WILLISTON      LGT RAIN  58  52  80 N9        29.92F
MINOT          CLOUDY    65  52  62 W10       29.87F
DICKINSON      LGT RAIN  55  53  93 N12       29.85F
BEACH          PTSUNNY   59  55  88 CALM      29.93F
CROSBY         PTSUNNY   57  57 100 SW16      29.94F FOG
WATFORD CITY   CLOUDY    57  54  88 N5        29.90F
BISMARCK       CLOUDY    73  57  57 N16       29.78F
GRAND FORKS    CLOUDY    76  55  48 NE7       29.84F THUNDER
FARGO          MOSUNNY   85  45  24 S14G33    29.83F
BUFFALO SD       N/A     62  51  67 NW15      29.83F
RAPID CITY     CLOUDY    67  52  58 NW28G41   29.87R
$$

REGIONAL REPORTS...WYOMING/IDAHO/WASHINGTON

CITY           SKY/WX    TMP DP  RH WIND       PRES   REMARKS
GILLETTE       PTSUNNY   64  44  48 NW9       29.96F
SHERIDAN       LGT RAIN  55  48  77 W14       30.04R
BUFFALO WY     LGT RAIN  52  46  80 N21G33    30.04R
CODY           PTSUNNY   55  43  62 N20G25    30.05R
YELLOWSTONE LA   N/A     56  16  20 W14G28    30.18R
IDAHO FALLS    CLOUDY    71  34  25 S21G30    30.07F
SALMON         CLOUDY    66  28  24 N9        30.10F
BOISE          MOSUNNY   72  34  24 NW20      30.11F
SPOKANE        MOSUNNY   66  31  27 VRB5      30.21S
$$

REGIONAL REPORTS...ALBERTA

CITY           SKY/WX    TMP DP  RH WIND       PRES   REMARKS
EDMONTON       LGT RAIN  48  45  87 N13G21    30.16R
CALGARY        MOSUNNY   57  36  44 N24G32    30.15S
LETHBRIDGE     PTSUNNY   59  41  51 NW15G32   30.13R
MEDICINE HAT   LGT RAIN  46  46 100 W26G36    30.01R BLWGSAND
$$

REGIONAL REPORTS...SASKATCHEWAN

CITY           SKY/WX    TMP DP  RH WIND       PRES   REMARKS
SWIFT CURRENT  MOSUNNY   59  48  67 W21       29.90S
REGINA         CLOUDY    70  45  40 S9        29.86S
SASKATOON      PTSUNNY   66  45  45 E14G23    29.95S
$$



USA.gov is the U.S. government's official web portal to all federal, state and local government web resources and services.